Cloud_Cover
58 50 92 100 94 88 100 99 89 62 92 39 16 100 100 100 100 100 100 100 100 100 100 65 14 98 100 100 100 100 100 100 100 100 100 100 72 100 100 100 20 0 57 100 100 100 100 100 100 25 0 0 0 0
5 17 100 100 100 100 75 99 100 98 100 100 100 64 95 100 100 100 100 94 97 100 100 66 39 72 100 100 100 100 100 100 100 100 100 100 100 100 100 28 13 0 65 100 100 100 100 100 100 100 28 0 0 85
30 48 100 100 100 100 84 93 100 100 100 100 99 45 100 100 100 100 100 100 100 100 100 75 5 8 100 81 100 100 100 100 100 100 100 100 100 100 100 6 5 0 2 99 100 100 100 61 99 100 100 71 27 90
15 94 100 100 100 51 100 57 73 100 96 80 77 100 100 100 100 100 100 100 100 100 100 43 96 100 100 100 100 100 100 100 100 100 100 100 100 100 98 7 5 86 100 100 100 100 100 100 100 100 87 5 4 5
6 100 100 100 50 99 100 61 100 96 60 79 71 100 100 100 100 100 100 100 100 95 91 100 100 100 100 100 100 100 100 100 100 100 100 100 100 100 80 29 68 100 100 100 100 100 100 100 100 100 100 100 96 100
49 97 100 98 100 100 100 100 98 82 98 66 98 100 100 100 100 100 100 100 100 100 100 100 100 100 100 100 100 100 100 100 100 100 100 100 100 100 56 95 100 100 100 100 100 100 100 100 100 100 100 100 100 100
100 96 92 100 100 18 63 98 100 100 100 100 99 100 99 100 100 100 100 100 100 100 100 100 100 100 100 100 100 100 100 100 100 100 100 100 100 90 80 100 98 100 100 100 100 100 99 100 100 100 100 100 100 100
98 72 95 86 5 51 35 100 100 100 100 100 100 84 99 100 100 100 100 100 100 100 100 100 100 100 100 100 100 100 100 100 100 100 100 100 100 74 100 100 100 100 100 100 100 100 100 100 100 100 100 100 100 93
49 5 5 5 7 26 67 89 100 100 77 81 100 97 69 100 100 100 100 100 100 100 100 100 100 100 100 100 100 100 100 100 100 100 100 100 100 100 100 100 100 100 100 100 100 100 100 100 100 100 100 100 100 100
5 12 76 35 82 96 100 100 100 39 5 60 99 95 94 99 100 100 100 100 100 100 100 100 100 100 100 100 100 100 100 100 100 100 100 100 100 100 100 100 100 100 100 100 100 100 100 100 100 100 100 100 100 100
80 94 97 39 91 99 82 100 61 21 98 93 91 100 90 90 84 98 100 100 100 100 100 100 100 100 100 100 100 100 100 100 100 100 100 100 100 100 100 100 100 100 100 100 100 100 100 100 100 100 100 100 100 100
30 78 93 68 14 25 48 54 72 59 92 100 99 100 100 100 100 62 74 99 100 100 100 100 100 100 100 100 100 100 100 100 100 100 100 100 100 100 100 100 100 100 100 100 100 100 100 100 100 100 100 98 100 50
7 36 61 18 86 52 96 99 100 100 100 100 100 100 100 100 100 100 100 100 99 100 96 100 99 100 100 100 100 100 100 100 100 100 100 100 100 100 100 100 100 100 100 100 100 100 100 100 100 100 100 100 100 86
8 42 99 100 22 34 94 100 100 100 100 100 100 100 100 100 100 100 100 100 99 99 98 100 89 100 100 100 97 90 71 100 100 100 100 100 100 100 100 100 100 100 100 100 100 100 100 100 100 100 100 100 99 41
5 22 75 87 67 59 100 100 100 100 100 100 100 100 100 100 100 100 100 100 100 100 100 100 100 100 100 100 100 100 100 100 100 100 100 100 100 100 100 100 100 100 100 100 100 100 100 100 100 100 100 88 60 97
5 5 5 30 70 85 100 100 98 82 32 100 98 100 100 100 100 100 100 100 100 100 100 100 100 100 100 100 100 100 100 100 100 100 100 100 100 100 100 100 100 100 100 100 100 100 100 34 52 85 100 100 100 100
4 5 5 22 100 100 98 100 47 88 70 99 100 100 80 100 56 99 100 100 100 100 100 100 100 100 100 100 100 100 100 100 100 100 100 100 100 100 100 100 100 100 100 100 100 98 70 70 100 96 99 100 100 100
0 1 5 5 63 34 8 5 32 69 99 100 100 100 100 100 100 100 100 100 100 100 100 100 100 100 100 100 100 100 100 100 98 96 88 90 99 100 99 100 100 100 100 79 47 100 100 100 100 100 100 100 100 72
0 0 0 4 11 70 15 36 99 100 100 97 100 100 100 100 100 100 100 100 100 100 100 100 100 100 98 99 100 100 96 94 100 74 86 96 100 100 100 100 100 100 100 100 100 40 66 100 100 85 42 28 100 100
1 0 0 0 1 14 71 94 100 100 100 100 100 100 100 100 100 100 100 100 100 100 100 100 100 100 100 100 100 100 100 100 100 100 100 100 100 100 100 100 100 100 100 100 100 100 98 73 16 5 5 18 60 56
5 2 0 0 0 5 5 21 91 100 100 100 100 100 100 100 100 100 100 100 100 100 100 100 100 100 100 100 100 100 100 100 100 100 100 100 100 100 74 100 98 63 100 100 100 100 45 55 40 87 82 51 28 5
90 35 7 5 58 71 18 4 27 44 29 7 24 93 100 100 100 100 100 99 100 100 100 100 92 95 99 100 100 100 100 100 100 100 100 100 100 100 100 100 100 100 98 60 50 82 91 76 26 5 5 5 5 10
37 39 47 75 37 99 94 95 45 13 65 58 27 40 60 47 100 100 100 100 100 100 100 92 98 100 100 79 69 91 98 100 100 100 100 100 100 100 100 100 100 100 100 100 100 100 100 100 100 99 81 73 38 12
5 33 31 72 100 100 96 100 85 96 100 100 100 100 100 87 98 100 100 100 100 99 100 100 100 100 100 100 100 86 80 59 37 71 44 28 32 33 57 40 57 59 50 41 30 20 17 13 12 7 8 5 5 5
100 80 51 100 99 74 100 96 97 83 84 91 100 100 100 100 98 100 100 100 100 90 91 87 85 62 61 53 99 100 97 71 22 8 5 5 5 10 8 5 5 1 0 5 5 5 12 18 13 5 5 5 3 1
80 46 67 31 83 96 100 100 100 100 100 100 100 100 100 100 100 100 100 100 100 100 100 100 100 100 100 100 100 100 81 70 32 24 25 22 41 38 29 12 22 21 26 14 6 4 3 2 1 1 0 1 2 4
76 84 70 58 81 94 100 100 100 100 100 100 100 92 99 100 100 100 100 100 100 100 100 100 100 100 100 100 100 100 100 100 100 100 100 100 100 100 100 100 100 97 84 66 67 66 44 34 7 5 5 5 39 55
95 100 99 97 95 100 100 100 100 100 100 100 100 100 100 100 100 100 100 100 100 100 100 100 100 100 100 100 100 99 100 100 100 100 100 100 100 100 100 100 95 42 8 5 5 5 5 5 5 5 5 5 5 7
53 34 94 83 59 66 80 97 100 100 100 100 100 100 100 100 100 88 100 100 93 98 100 100 100 100 100 100 100 100 100 100 100 99 10 5 4 3 3 5 5 5 5 4 7 15 49 60 14 5 5 5 5 15
50 77 100 98 40 44 54 93 86 96 100 100 100 99 100 85 100 100 100 100 99 100 100 100 100 100 98 99 78 65 4 8 3 2 0 2 2 2 0 1 3 3 4 5 4 20 10 18 5 5 5 5 5 5
6 17 29 7 14 81 94 64 64 40 98 100 100 100 100 100 97 100 100 100 100 100 100 100 100 100 100 89 55 2 0 0 0 0 0 2 3 4 5 3 3 2 4 5 5 5 5 5 6 36 19 58 79 51
3 2 3 5 5 5 83 99 98 82 100 100 100 100 100 100 100 99 100 99 92 99 76 18 10 47 5 5 1 0 0 0 0 0 0 0 0 0 2 4 5 5 5 5 5 9 26 50 68 89 99 100 100 100
5 4 1 1 4 4 0 4 8 66 98 61 74 70 98 72 33 44 73 31 5 5 5 25 11 5 5 4 2 2 0 1 5 4 0 0 0 0 3 5 5 5 20 36 59 74 99 100 100 100 100 100 100 100